Tracking 35275 objects as of 9-Sep-2026
HD Live streaming from Space Station
objects crossing your sky now

STARLINK-34016

Track STARLINK-34016 now!
10-day predictions
STARLINK-34016 is classified as:


NORAD ID: 64016
Int'l Code: 2025-101Y
Launch date: May 14, 2025
Source: United States (US)
Launch site: AIR FORCE EASTERN TEST RANGE (AFETR)
Your satellite tracking list
Your tracking list is empty




NASA's NSSDC Master Catalog

Two Line Element Set (TLE):
1 64016U 25101Y   26251.48028084  .00013159  00000-0  48679-3 0  9992
2 64016  43.0022  45.3960 0001220 260.3233  99.7481 15.27585736 75011
Source of the keplerian elements: AFSPC